Wind_Speed
18 18 19 19 19 19 18 18 19 19 19 19 20 20 20 21 21 22 23 23 23 24 25 26 26 27 28 28 28 29 29 29 30 31 31 32 32 33
20 20 20 20 21 21 21 21 22 22 22 22 22 22 23 24 25 26 26 27 27 28 29 29 30 31 31 32 32 33 33 33 34 35 35 36 36 36
21 21 21 22 22 23 24 24 24 25 25 25 26 26 27 27 28 29 29 30 31 31 32 33 34 34 35 36 36 37 37 38 38 39 40 40 40 40
23 23 23 24 24 25 25 26 26 26 27 27 28 28 29 30 31 32 32 33 34 35 36 36 37 38 39 39 40 41 41 42 43 43 43 44 44 44
24 25 24 24 25 26 27 27 28 29 29 29 30 31 31 32 34 35 36 37 38 38 39 40 41 42 42 43 43 44 44 45 46 46 47 47 48 48
25 25 25 26 26 27 28 29 29 30 31 32 33 33 34 35 36 37 39 40 40 41 42 43 44 45 46 46 47 47 48 49 49 50 51 51 51 52
27 27 27 27 28 29 30 31 31 31 32 34 35 35 36 38 39 40 41 42 43 44 45 47 47 48 49 49 50 51 52 52 53 54 54 55 56 56
26 27 27 27 29 30 31 32 34 34 34 36 37 38 39 40 41 42 43 45 47 47 49 50 51 52 52 53 54 55 56 56 57 57 58 58 59 59
27 28 29 30 32 32 32 33 35 36 37 38 40 40 41 42 44 45 46 48 49 51 51 52 53 54 55 56 57 58 58 59 59 60 60 60 60 61
28 29 30 31 32 32 33 34 35 37 38 41 42 42 43 45 46 48 48 49 51 52 53 54 56 57 58 59 59 60 61 61 62 62 62 62 62 62
28 30 31 32 33 33 35 36 37 38 40 41 42 44 45 46 48 49 51 52 53 55 56 57 58 59 59 60 61 62 62 62 63 63 63 63 62 62
30 31 32 33 34 35 37 39 40 41 42 43 44 46 47 49 50 51 52 54 55 56 57 58 59 60 60 61 62 62 63 63 63 63 63 63 63 63
32 32 34 36 37 38 39 41 43 44 45 46 47 48 49 50 51 53 54 56 57 58 60 60 61 62 62 61 61 61 62 62 62 62 63 62 62 62
33 35 36 37 39 41 42 43 44 45 46 47 48 49 51 52 53 55 56 58 59 60 61 62 62 61 61 61 60 60 60 60 59 59 59 59 59 58
35 36 38 39 40 42 43 44 44 45 46 48 49 51 52 54 55 56 57 58 59 59 59 59 59 59 59 59 58 57 56 55 55 54 53 53 52 52
36 38 39 41 42 43 43 43 44 45 47 49 50 51 53 54 55 55 56 56 56 57 57 57 57 57 57 56 55 54 53 52 51 49 48 47 46 46
39 40 41 42 43 42 43 44 45 46 48 49 50 51 52 53 54 54 54 54 54 54 55 55 55 54 54 53 52 51 50 49 47 45 44 42 41 41
39 41 41 42 42 43 44 45 46 46 48 49 50 50 51 51 52 52 52 52 52 52 52 51 51 50 50 49 48 47 45 44 42 41 40 38 37 37
39 40 40 40 41 42 43 44 45 46 47 48 49 49 49 49 49 49 49 49 49 48 48 47 46 46 45 44 43 42 41 39 38 37 37 36 35 35
38 39 39 40 41 42 42 43 45 46 46 47 47 47 47 47 47 47 47 46 46 46 45 45 44 43 41 40 38 37 37 36 35 34 33 33 33 33
37 38 38 39 40 41 42 43 44 45 45 45 45 44 44 44 44 44 44 43 43 42 42 41 40 39 38 36 35 34 33 33 32 31 30 30 29 29
36 36 37 39 40 41 41 42 43 43 43 42 42 42 41 40 40 40 39 39 39 39 38 37 36 35 34 32 31 31 30 29 30 29 28 27 27 26
35 36 37 38 39 40 40 40 40 40 39 39 38 38 37 37 37 37 37 37 36 36 35 34 33 32 31 30 29 29 28 28 28 27 26 25 25 24
Wind_Direction
243 245 247 251 254 257 260 263 266 268 270 271 272 274 274 276 278 279 280 280 281 281 280 281 282 283 283 282 282 282 282 282 281 281 281 281 281 281
246 248 250 252 256 258 261 265 268 269 271 272 273 275 276 276 277 279 280 281 282 282 282 282 283 283 283 282 282 282 282 282 282 282 281 281 281 281
248 250 253 256 259 261 263 267 269 271 273 274 275 276 276 277 278 279 281 281 282 282 282 283 283 283 284 283 282 282 282 282 282 282 282 281 280 280
252 253 256 258 261 263 265 267 269 271 273 275 277 278 278 279 279 280 281 282 283 283 283 283 284 284 284 284 283 282 282 281 281 281 281 280 280 280
254 255 257 261 263 265 267 269 270 271 273 275 277 277 279 280 281 281 282 283 284 284 284 284 284 284 284 284 284 283 283 282 282 281 281 281 280 280
254 256 259 263 266 268 269 271 272 274 275 276 277 278 280 281 282 283 283 283 284 285 285 284 285 285 285 285 284 284 284 283 283 282 282 281 280 280
257 258 261 265 267 269 271 272 273 274 276 277 278 279 280 281 282 282 283 283 284 285 285 286 286 286 286 285 285 285 284 284 284 283 283 282 281 281
258 261 264 268 269 270 273 274 274 275 276 278 279 280 281 282 282 283 284 284 285 285 286 287 288 288 288 287 286 285 284 284 284 283 283 283 282 281
263 264 266 269 270 272 275 276 277 278 279 280 282 283 283 284 284 285 285 285 285 286 287 287 288 288 288 287 287 286 285 285 285 284 284 283 281 281
267 268 270 272 274 277 278 277 279 281 282 283 284 285 286 286 286 287 287 287 287 288 288 289 289 289 289 288 288 288 287 287 286 285 284 283 281 281
269 271 272 274 276 278 279 281 282 283 284 286 286 287 288 289 289 289 289 289 289 290 290 290 290 290 290 290 289 289 288 287 286 286 285 283 283 281
271 274 276 279 281 281 282 283 284 285 286 286 287 288 290 290 290 290 290 290 291 292 292 292 292 292 291 291 291 290 288 287 287 286 286 285 284 283
273 276 279 282 283 284 285 285 287 287 288 288 289 290 291 291 291 291 292 293 293 293 294 293 293 293 293 292 291 290 289 288 288 287 286 285 285 284
275 278 280 282 284 286 287 288 289 289 289 290 291 292 293 293 293 294 294 295 295 295 295 294 294 293 293 292 291 291 290 290 289 288 288 287 286 285
278 281 283 285 287 288 289 288 288 289 291 292 293 294 295 295 296 296 296 296 296 296 296 296 295 295 294 293 293 292 291 290 290 289 289 288 287 286
283 285 286 287 288 289 289 289 290 291 293 295 296 296 297 297 298 298 298 298 298 298 298 297 296 295 295 294 294 293 292 291 290 289 289 288 287 286
284 285 286 288 288 289 291 292 293 295 296 297 298 299 300 300 300 300 300 300 300 299 299 299 298 297 296 295 294 294 293 291 290 289 288 288 287 287
287 288 289 290 291 292 293 295 297 298 298 299 301 301 302 302 302 302 302 302 302 302 301 301 300 299 298 297 296 296 294 293 291 290 289 288 288 288
290 290 291 293 294 295 297 298 299 300 301 301 302 303 303 304 304 304 304 304 304 303 303 303 302 301 300 299 298 296 295 294 292 291 290 289 289 288
292 292 293 295 297 298 299 300 301 302 303 303 304 304 305 305 306 306 306 306 305 305 305 304 304 303 302 301 299 297 296 295 294 292 290 290 289 289
294 296 297 298 300 301 302 303 304 304 305 305 306 306 307 307 308 307 307 308 308 308 307 307 306 305 304 303 301 300 298 297 296 294 293 292 290 289
297 298 300 302 302 303 304 305 306 307 308 308 308 309 310 310 310 310 311 311 311 311 311 310 309 308 307 306 304 302 301 300 299 297 295 293 291 290
301 302 303 304 305 306 306 307 308 309 310 311 311 312 313 313 313 314 314 315 315 315 314 313 311 310 309 308 307 305 304 302 300 299 298 296 294 291
Height
5877 5878 5879 5879 5880 5880 5880 5880 5881 5880 5880 5879 5878 5878 5877 5876 5875 5874 5873 5872 5871 5870 5869 5868 5867 5866 5864 5863 5862 5860 5859 5858 5857 5856 5854 5853 5852 5851
5873 5874 5874 5875 5875 5875 5875 5875 5875 5875 5874 5874 5873 5872 5871 5871 5870 5868 5867 5866 5865 5864 5862 5861 5860 5858 5857 5855 5854 5852 5851 5850 5848 5847 5846 5845 5843 5842
5869 5869 5870 5870 5870 5870 5870 5870 5870 5869 5869 5868 5867 5866 5865 5864 5863 5862 5860 5859 5858 5856 5855 5853 5851 5850 5848 5847 5845 5843 5842 5840 5838 5837 5836 5834 5833 5832
5864 5865 5865 5865 5865 5865 5865 5864 5864 5863 5862 5861 5860 5859 5858 5857 5856 5854 5852 5850 5849 5848 5846 5844 5842 5840 5838 5837 5835 5833 5831 5829 5828 5826 5824 5823 5821 5820
5858 5859 5859 5859 5859 5859 5858 5858 5857 5856 5855 5854 5853 5852 5851 5849 5847 5846 5844 5841 5839 5838 5836 5834 5832 5830 5828 5826 5823 5821 5819 5817 5815 5814 5812 5810 5808 5807
5852 5852 5853 5853 5853 5852 5852 5851 5850 5849 5848 5847 5845 5844 5842 5841 5839 5837 5834 5832 5830 5827 5825 5823 5821 5818 5816 5813 5811 5809 5806 5804 5802 5800 5798 5796 5794 5792
5846 5846 5846 5846 5846 5846 5845 5844 5843 5841 5840 5838 5837 5835 5834 5832 5829 5827 5824 5821 5819 5816 5813 5810 5808 5805 5803 5800 5798 5795 5792 5789 5787 5785 5782 5780 5778 5776
5839 5839 5839 5839 5839 5838 5837 5836 5834 5833 5831 5830 5828 5826 5824 5821 5819 5816 5813 5810 5807 5805 5802 5798 5795 5791 5788 5785 5783 5780 5777 5774 5771 5768 5766 5763 5761 5759
5833 5832 5832 5831 5830 5830 5828 5827 5825 5824 5822 5820 5818 5816 5813 5811 5808 5805 5801 5798 5795 5791 5788 5784 5780 5776 5773 5769 5766 5763 5759 5756 5753 5750 5748 5745 5742 5740
5826 5825 5825 5824 5822 5821 5820 5818 5816 5815 5813 5810 5808 5805 5802 5799 5795 5792 5789 5785 5781 5778 5774 5770 5765 5761 5757 5752 5749 5745 5741 5738 5734 5731 5728 5725 5723 5720
5819 5818 5817 5816 5814 5813 5811 5809 5807 5805 5803 5800 5797 5793 5790 5786 5783 5779 5775 5771 5767 5763 5759 5754 5749 5745 5740 5735 5730 5726 5722 5718 5714 5711 5708 5705 5702 5699
5811 5810 5809 5807 5806 5804 5802 5800 5797 5794 5792 5788 5785 5781 5778 5774 5770 5765 5761 5756 5751 5747 5742 5738 5732 5727 5723 5717 5711 5706 5702 5698 5695 5691 5687 5684 5680 5678
5803 5802 5800 5799 5796 5794 5792 5789 5786 5783 5779 5776 5772 5768 5764 5760 5755 5751 5746 5741 5736 5730 5725 5720 5714 5708 5703 5699 5693 5687 5683 5678 5674 5670 5666 5663 5660 5656
5794 5793 5791 5789 5787 5784 5781 5778 5774 5771 5767 5763 5759 5754 5750 5745 5740 5735 5730 5724 5718 5713 5707 5701 5696 5690 5685 5680 5675 5669 5664 5659 5654 5650 5646 5643 5639 5636
5785 5783 5781 5779 5776 5773 5770 5766 5762 5758 5754 5750 5745 5741 5736 5730 5725 5719 5713 5707 5701 5695 5690 5684 5678 5672 5666 5661 5656 5651 5646 5641 5637 5633 5629 5625 5621 5618
5775 5773 5771 5768 5765 5761 5758 5754 5750 5746 5741 5736 5731 5726 5721 5715 5710 5703 5697 5691 5684 5678 5672 5667 5661 5655 5649 5643 5638 5633 5629 5625 5621 5617 5613 5609 5605 5602
5765 5763 5759 5756 5753 5749 5745 5742 5737 5733 5728 5723 5717 5712 5706 5700 5694 5687 5681 5674 5668 5662 5656 5650 5643 5638 5632 5627 5621 5617 5612 5609 5605 5601 5598 5595 5591 5587
5755 5752 5748 5745 5741 5737 5733 5729 5724 5720 5715 5709 5703 5697 5691 5685 5679 5672 5666 5659 5653 5647 5640 5634 5628 5623 5617 5611 5606 5601 5597 5594 5590 5587 5584 5582 5579 5575
5744 5741 5737 5733 5729 5725 5721 5716 5712 5707 5701 5695 5690 5683 5677 5671 5665 5658 5652 5646 5639 5633 5626 5620 5615 5609 5604 5599 5592 5588 5584 5580 5577 5575 5572 5569 5566 5564
5733 5729 5726 5722 5718 5714 5709 5704 5699 5694 5688 5682 5676 5670 5664 5658 5651 5645 5639 5633 5626 5620 5614 5608 5602 5596 5591 5586 5582 5577 5572 5569 5566 5563 5561 5558 5555 5553
5722 5719 5715 5711 5707 5702 5697 5692 5687 5681 5675 5669 5664 5658 5652 5646 5639 5633 5627 5621 5615 5609 5602 5597 5591 5585 5580 5575 5571 5567 5563 5559 5555 5552 5550 5548 5546 5543
5712 5709 5705 5700 5696 5691 5686 5680 5675 5669 5664 5658 5652 5646 5640 5635 5629 5623 5617 5611 5605 5598 5592 5586 5581 5576 5571 5566 5561 5558 5554 5550 5547 5543 5541 5539 5536 5534
5703 5699 5694 5690 5685 5680 5675 5669 5664 5659 5653 5648 5642 5636 5631 5625 5619 5613 5607 5602 5595 5589 5583 5578 5572 5567 5562 5557 5553 5549 5546 5542 5539 5536 5533 5530 5528 5526